Terminal Aerodrome Forecast
Issued by NWS Miami, FL

Home | Current Version | Previous Version | Text Only | Print | Product List | Glossary On
Versions: 1 2 3 4 5 6 7 8 9 10 11 12 13 14 15 16 17 18 19 20 21 22 23 24 25 26 27 28 29 30 31 32 33 34 35 36 37 38 39 40 41 42 43 44 45 46 47 48 49 50
000
FTUS42 KMFL 032052 AAA
TAFFLL
TAF AMD
KFLL 032052Z 0321/0418 11012KT P6SM SCT027 BKN250
     FM032115 28010KT P6SM VCTS SCT035CB BKN050
     FM040100 12006KT P6SM FEW025
     FM041500 13011KT P6SM VCTS SCT035CB BKN050=

USA.gov is the U.S. government's official web portal to all federal, state and local government web resources and services.